Hlavní strana
METAR-TAF:

METAR-TAF

Letiště :

Edenton, Severní Karolína, Spojené státy americké

zeměpisná šířka: 36-01-40N, zeměpisná délka: 076-34-02W, výška: 6 m

Aktuální stav počasí

Zpráva byla vytvořena před 26 minutami, v 01:15 UTC
Jižní vítr 9 kt
Teplota 23°C
Vlhkost vzduchu 100%
Tlak 1016 hPa
Viditelnost: 16.1 km
Polojasno ve výšce 12000 ft

METAR: KEDE 300115Z AUTO 18009KT 10SM SCT120 23/23 A3001 RMK AO2 T02320230

Čas: 21:41 (01:41 UTC)


TAF: chybějící

Stav a předpovědi počasí z více než 4 000 letišť (zprávy METAR a TAF).

Červené a žluté tečky na mapě představují dostupné meteorologické stanice.

Když kurzor umístíte na tečku, zobrazí se název stanice.

Pak kliknutím zobrazíte stav a předpověď počasí.

Chcete-li změnit mapu, kliknutím na zelené tlačítko se znaménkem +mapu přiblížíte, kliknutím na zelené tlačítko se znaménkem – mapu oddálíte a kliknutím na zelené šipky přejdete na sousední mapy.


METAR-TAF: